Weather History for CWWZ - August, 2013

Change the Weather History Date:

Friday, August 16, 2013

  Actual Average Record
Temperature  
Mean Temperature 68 °F -  
Max Temperature 77 °F - - ()
Min Temperature 60 °F - - ()
Cooling Degree Days 4    
Growing Degree Days 18 (Base 50)    
Moisture  
Dew Point 54 °F    
Average Humidity 59    
Maximum Humidity 78    
Minimum Humidity 37    
Precipitation  
Precipitation 0.00 in - - ()
Sea Level Pressure  
Sea Level Pressure 30.15 in    
Wind  
Wind Speed 3 mph ()    
Max Wind Speed 6 mph    
Max Gust Speed -    
T = Trace of Precipitation, MM = Missing Value Source: Averaged Metar Reports

Daily Weather History Graph

Daily Weather History Graph

Search for Another Location

Airport or City:

Trip Planner

Search our weather history database for the weather conditions in past years. The results will help you decide how hot, cold, wet, or windy it might be!

Date:

Astronomy

Aug. 16, 2013 Rise Set
Actual Time 6:23 AM EDT 8:17 PM EDT
Civil Twilight 5:52 AM EDT 8:48 PM EDT
Nautical Twilight 5:15 AM EDT 9:25 PM EDT
Astronomical Twilight 4:34 AM EDT 10:06 PM EDT
Moon 4:38 PM EDT (8/16) 1:21 AM EDT (8/16)
Length of Visible Light 14h 55m
Length of Day
13h 54m
Waxing Gibbous, 74% of the Moon is Illuminated
Aug 16
Waxing Gibbous
Aug 20
Full
Aug 28
Last Quarter
Sep 5
New
Sep 12
First Quarter

Hourly Weather History & Observations

Time (EDT) Temp. Dew Point Humidity Pressure Visibility Wind Dir Wind Speed Gust Speed Precip Events Conditions
12:00 AM 63.9 °F 53.4 °F 69% 30.12 in - WSW 1.2 mph - N/A   Unknown
1:00 AM 62.8 °F 52.9 °F 70% 30.12 in - SSW 3.5 mph - N/A   Unknown
2:00 AM 61 °F 52 °F 64% 30.12 in - SSE 4.6 mph - -  
2:00 AM 60.6 °F 51.8 °F 73% 30.12 in - SSE 4.6 mph - N/A   Unknown
3:00 AM 60.4 °F 51.1 °F 71% 30.11 in - SSW 3.5 mph - N/A   Unknown
4:00 AM 60.8 °F 51.4 °F 71% 30.12 in - SSW 3.5 mph - N/A   Unknown
5:00 AM 61 °F 52 °F 65% 30.12 in - SSW 4.6 mph - -  
5:00 AM 60.8 °F 52.3 °F 74% 30.12 in - SSW 4.6 mph - N/A   Unknown
6:00 AM 60.1 °F 53.1 °F 78% 30.13 in - SW 2.3 mph - N/A   Unknown
7:00 AM 60.3 °F 52.7 °F 76% 30.14 in - SSW 3.5 mph - N/A   Unknown
8:00 AM 62.6 °F 52.2 °F 69% 30.15 in - East 3.5 mph - N/A   Unknown
9:00 AM 64.9 °F 50.9 °F 60% 30.16 in - South 3.5 mph - N/A   Unknown
10:00 AM 68.0 °F 52.7 °F 58% 30.17 in - SW 1.2 mph - N/A   Unknown
11:00 AM 71 °F 56 °F 48% 30.17 in - West 3.5 mph - -  
11:00 AM 70.7 °F 55.6 °F 59% 30.17 in - West 3.5 mph - N/A   Unknown
12:00 PM 72.5 °F 54.7 °F 53% 30.17 in - West 3.5 mph - N/A   Unknown
1:00 PM 73.4 °F 52.9 °F 49% 30.16 in - NNW 1.2 mph - N/A   Unknown
2:00 PM 75 °F 54 °F 37% 30.16 in - ENE 2.3 mph - -  
2:00 PM 75.0 °F 53.6 °F 47% 30.16 in - ENE 2.3 mph - N/A   Unknown
3:00 PM 73.8 °F 52.7 °F 48% 30.16 in - NNW 1.2 mph - N/A   Unknown
4:00 PM 77.4 °F 55.9 °F 47% 30.15 in - NW 3.5 mph - N/A   Unknown
5:00 PM 77 °F 56 °F 38% 30.15 in - SSW 1.2 mph - -  
5:00 PM 77.2 °F 56.3 °F 48% 30.15 in - SSW 1.2 mph - N/A   Unknown
6:00 PM 75.7 °F 58.5 °F 55% 30.16 in - SSW 1.2 mph - N/A   Unknown
7:00 PM 73.0 °F 57.2 °F 57% 30.16 in - SE 5.8 mph - N/A   Unknown
8:00 PM 71 °F 56 °F 50% 30.17 in - East 4.6 mph - -  
8:00 PM 71.4 °F 56.3 °F 59% 30.17 in - East 4.6 mph - N/A   Unknown
9:00 PM 69.4 °F 55.6 °F 61% 30.18 in - SE 4.6 mph - N/A   Unknown
10:00 PM 67.8 °F 53.1 °F 59% 30.19 in - SSW 3.5 mph - N/A   Unknown
11:00 PM 66 °F 55 °F 58% 30.20 in - SSW 3.5 mph - -  
11:00 PM 66.4 °F 54.7 °F 66% 30.20 in - SSW 3.5 mph - N/A   Unknown